timestamp,surface_pressure_avg,surface_temp_avg,battery_voltage,lat,long
2019-02-17 00:00:00+00:00,268.0448,-0.0,12.97,47.84626,-54.09684
2019-02-17 00:10:00+00:00,256.3064,-0.0,12.89,47.84626,-54.09684
2019-02-17 00:20:00+00:00,249.6814,0.0,12.97,47.84626,-54.09684
2019-02-17 00:30:00+00:00,251.388,0.0,12.97,47.84626,-54.09684
2019-02-17 00:40:00+00:00,246.2014,0.0,12.97,47.84626,-54.09684
2019-02-17 00:50:00+00:00,233.1814,0.0,12.97,47.84626,-54.09684
2019-02-17 01:00:00+00:00,225.4481,-0.0,12.89,47.84626,-54.09684
2019-02-17 01:10:00+00:00,227.3764,0.0,12.81,47.84626,-54.09684
2019-02-17 01:20:00+00:00,225.9297,0.0,12.89,47.84626,-54.09684
2019-02-17 01:30:00+00:00,217.1331,0.0,12.97,47.84626,-54.09684
2019-02-17 01:40:00+00:00,219.2415,0.0,12.97,47.84626,-54.09684
2019-02-17 01:50:00+00:00,222.2314,0.0,12.97,47.84626,-54.09684
2019-02-17 02:00:00+00:00,217.8264,-0.0,12.89,47.84626,-54.09684
2019-02-17 02:10:00+00:00,214.1831,-0.01,12.81,47.84626,-54.09684
2019-02-17 02:20:00+00:00,212.8081,-0.0,12.89,47.84626,-54.09684
2019-02-17 02:30:00+00:00,207.9215,-0.0,12.89,47.84626,-54.09684
2019-02-17 02:40:00+00:00,207.0065,-0.01,12.97,47.84626,-54.09684
2019-02-17 02:50:00+00:00,208.3498,-0.0,12.97,47.84626,-54.09684
2019-02-17 03:00:00+00:00,205.8731,-0.01,12.89,47.84626,-54.09684
2019-02-17 03:10:00+00:00,207.6231,-0.01,12.81,47.84626,-54.09684
2019-02-17 03:20:00+00:00,208.9931,-0.0,12.89,47.84626,-54.09684
2019-02-17 03:30:00+00:00,210.5298,-0.02,12.89,47.84626,-54.09684
2019-02-17 03:40:00+00:00,210.4847,-0.02,12.89,47.84626,-54.09684
2019-02-17 03:50:00+00:00,213.8264,-0.03,12.89,47.84626,-54.09684
2019-02-17 04:00:00+00:00,219.4364,-0.02,12.81,47.84626,-54.09684
2019-02-17 04:10:00+00:00,220.6831,-0.06,12.73,47.84626,-54.09684
2019-02-17 04:20:00+00:00,220.5781,-0.1,12.81,47.84626,-54.09684
2019-02-17 04:30:00+00:00,227.6114,-0.06,12.81,47.84626,-54.09684
2019-02-17 04:40:00+00:00,234.9965,-0.05,12.89,47.84626,-54.09684
2019-02-17 04:50:00+00:00,230.8731,-0.1,12.89,47.84626,-54.09684
2019-02-17 05:00:00+00:00,233.7647,-0.1,12.81,47.84626,-54.09684
2019-02-17 05:10:00+00:00,246.8231,-0.1,12.73,47.84626,-54.09684
2019-02-17 05:20:00+00:00,235.1314,-0.1,12.81,47.84626,-54.09684
2019-02-17 05:30:00+00:00,226.9381,-0.1,12.81,47.84626,-54.09684
2019-02-17 05:40:00+00:00,246.1481,-0.1,12.81,47.84626,-54.09684
2019-02-17 05:50:00+00:00,253.438,-0.1,12.89,47.84626,-54.09684
2019-02-17 06:00:00+00:00,247.0798,-0.1,12.81,47.84626,-54.09684
2019-02-17 06:10:00+00:00,255.6114,-0.1,12.73,47.84626,-54.09684
2019-02-17 06:20:00+00:00,268.928,-0.1,12.81,47.84626,-54.09684
2019-02-17 06:30:00+00:00,275.4265,-0.1,12.81,47.84626,-54.09684
2019-02-17 06:40:00+00:00,280.0031,-0.1,12.81,47.84626,-54.09684
2019-02-17 06:50:00+00:00,290.2198,-0.1,12.81,47.84626,-54.09684
2019-02-17 07:00:00+00:00,301.6664,-0.1,12.73,47.84626,-54.09684
2019-02-17 07:10:00+00:00,305.7679,-0.1,12.73,47.84626,-54.09684
2019-02-17 07:20:00+00:00,304.2496,-0.1,12.81,47.84626,-54.09684
2019-02-17 07:30:00+00:00,313.788,-0.1,12.81,47.84626,-54.09684
2019-02-17 07:40:00+00:00,326.2363,-0.1,12.81,47.84626,-54.09684
2019-02-17 07:50:00+00:00,329.1747,-0.1,12.81,47.84626,-54.09684
2019-02-17 08:00:00+00:00,328.463,-0.1,12.73,47.84626,-54.09684
2019-02-17 08:10:00+00:00,332.418,-0.1,12.65,47.84626,-54.09684
2019-02-17 08:20:00+00:00,340.2047,-0.1,12.81,47.84626,-54.09684
2019-02-17 08:30:00+00:00,337.5147,-0.1,12.81,47.84626,-54.09684
2019-02-17 08:40:00+00:00,330.9713,-0.1,12.81,47.84626,-54.09684
2019-02-17 08:50:00+00:00,333.1146,-0.1,12.81,47.84626,-54.09684
2019-02-17 09:00:00+00:00,343.3063,-0.1,12.73,47.84626,-54.09684
2019-02-17 09:10:00+00:00,341.6379,-0.1,12.65,47.84626,-54.09684
2019-02-17 09:20:00+00:00,336.2313,-0.1,12.73,47.84626,-54.09684
2019-02-17 09:30:00+00:00,345.433,-0.1,12.81,47.84626,-54.09684
2019-02-17 09:40:00+00:00,352.1495,-0.1,12.81,47.84626,-54.09684
2019-02-17 09:50:00+00:00,350.4479,-0.1,12.81,47.84626,-54.09684
2019-02-17 10:00:00+00:00,352.7896,-0.1,12.73,47.84626,-54.09684
2019-02-17 10:10:00+00:00,352.9929,-0.1,12.65,47.84626,-54.09684
2019-02-17 10:20:00+00:00,354.6513,-0.1,12.73,47.84626,-54.09684
2019-02-17 10:30:00+00:00,351.2928,-0.1,12.81,47.84626,-54.09684
2019-02-17 10:40:00+00:00,344.298,-0.1,12.81,47.84626,-54.09684
2019-02-17 10:50:00+00:00,341.0813,-0.1,12.81,47.84626,-54.09684
2019-02-17 11:00:00+00:00,345.2546,-0.1,12.73,47.84626,-54.09684
2019-02-17 11:10:00+00:00,339.5347,-0.1,12.65,47.84626,-54.09684
2019-02-17 11:20:00+00:00,327.8346,-0.1,12.81,47.84626,-54.09684
2019-02-17 11:30:00+00:00,327.9913,-0.1,12.81,47.84626,-54.09684
2019-02-17 11:40:00+00:00,325.703,-0.1,12.97,47.84626,-54.09684
2019-02-17 11:50:00+00:00,306.7064,-0.1,14.08,47.84626,-54.09684
2019-02-17 12:00:00+00:00,298.3364,-0.1,14.88,47.84626,-54.09684
2019-02-17 12:10:00+00:00,302.8647,-0.1,14.16,47.84626,-54.09684
2019-02-17 12:20:00+00:00,294.1263,-0.1,15.35,47.84626,-54.09684
2019-02-17 12:30:00+00:00,274.0997,-0.1,15.2,47.84626,-54.09684
2019-02-17 12:40:00+00:00,267.2314,-0.1,14.72,47.84626,-54.09684
2019-02-17 12:50:00+00:00,274.7214,-0.1,14.72,47.84626,-54.09684
2019-02-17 13:00:00+00:00,265.0547,-0.1,15.04,47.84626,-54.09684
2019-02-17 13:10:00+00:00,247.3765,-0.07,15.04,47.84626,-54.09684
2019-02-17 13:20:00+00:00,247.6914,-0.08,15.04,47.84626,-54.09684
2019-02-17 13:30:00+00:00,245.8864,-0.06,15.04,47.84626,-54.09684
2019-02-17 13:40:00+00:00,226.5914,-0.04,15.04,47.84626,-54.09684
2019-02-17 13:50:00+00:00,216.9531,-0.01,14.96,47.84626,-54.09684
2019-02-17 14:00:00+00:00,227.8748,-0.01,14.96,47.84626,-54.09684
2019-02-17 14:10:00+00:00,218.8948,-0.01,14.96,47.84626,-54.09684
2019-02-17 14:20:00+00:00,198.1732,-0.0,14.96,47.84626,-54.09684
2019-02-17 14:30:00+00:00,200.6747,0.0,14.96,47.84626,-54.09684
2019-02-17 14:40:00+00:00,207.3248,0.0,14.96,47.84626,-54.09684
2019-02-17 14:50:00+00:00,198.1398,0.0,14.96,47.84626,-54.09684
2019-02-17 15:00:00+00:00,194.4015,0.0,14.88,47.84626,-54.09684
2019-02-17 15:10:00+00:00,194.3081,0.0,14.8,47.84626,-54.09684
2019-02-17 15:20:00+00:00,184.9648,0.0,14.96,47.84626,-54.09684
2019-02-17 15:30:00+00:00,182.4431,0.0,14.88,47.84626,-54.09684
2019-02-17 15:40:00+00:00,187.6581,0.0,14.88,47.84626,-54.09684
2019-02-17 15:50:00+00:00,188.1948,0.0,14.88,47.84626,-54.09684
2019-02-17 16:00:00+00:00,186.4848,0.0,14.8,47.84626,-54.09684
2019-02-17 16:10:00+00:00,192.6881,0.0,14.8,47.84626,-54.09684
2019-02-17 16:20:00+00:00,204.3597,0.0,14.88,47.84626,-54.09684
2019-02-17 16:30:00+00:00,204.9331,0.0,14.8,47.84626,-54.09684
2019-02-17 16:40:00+00:00,199.3098,0.0,14.8,47.84626,-54.09684
2019-02-17 16:50:00+00:00,202.9681,0.0,14.8,47.84626,-54.09684
2019-02-17 17:00:00+00:00,207.6464,0.0,14.64,47.84626,-54.09684
2019-02-17 17:10:00+00:00,203.2081,0.0,14.4,47.84626,-54.09684
2019-02-17 17:20:00+00:00,200.8898,0.02,14.64,47.84626,-54.09684
2019-02-17 17:30:00+00:00,213.1348,0.04,14.72,47.84626,-54.09684
2019-02-17 17:40:00+00:00,217.6214,0.07,14.72,47.84626,-54.09684
2019-02-17 17:50:00+00:00,212.3498,0.08,14.72,47.84626,-54.09684
2019-02-17 18:00:00+00:00,219.7048,0.09,14.64,47.84626,-54.09684
2019-02-17 18:10:00+00:00,230.1081,0.1,14.64,47.84626,-54.09684
2019-02-17 18:20:00+00:00,233.5447,0.1,14.64,47.84626,-54.09684
2019-02-17 18:30:00+00:00,241.8648,0.1,14.64,47.84626,-54.09684
2019-02-17 18:40:00+00:00,252.5014,0.1,14.64,47.84626,-54.09684
2019-02-17 18:50:00+00:00,258.0247,0.1,14.64,47.84626,-54.09684
2019-02-17 19:00:00+00:00,264.6048,0.1,14.56,47.84626,-54.09684
2019-02-17 19:10:00+00:00,273.5364,0.1,14.4,47.84626,-54.09684
2019-02-17 19:20:00+00:00,281.4863,0.1,14.48,47.84626,-54.09684
2019-02-17 19:30:00+00:00,287.2847,0.0,14.48,47.84626,-54.09684
2019-02-17 19:40:00+00:00,301.0497,0.0,14.4,47.84626,-54.09684
2019-02-17 19:50:00+00:00,309.723,0.03,14.32,47.84626,-54.09684
2019-02-17 20:00:00+00:00,313.3997,0.05,14.16,47.84626,-54.09684
2019-02-17 20:10:00+00:00,321.2596,0.05,13.92,47.84626,-54.09684
2019-02-17 20:20:00+00:00,330.7263,0.05,13.92,47.84626,-54.09684
2019-02-17 20:30:00+00:00,332.113,0.06,13.84,47.84626,-54.09684
2019-02-17 20:40:00+00:00,335.0847,0.07,13.84,47.84626,-54.09684
2019-02-17 20:50:00+00:00,339.9963,0.08,13.76,47.84626,-54.09684
2019-02-17 21:00:00+00:00,345.383,0.09,13.68,47.84626,-54.09684
2019-02-17 21:10:00+00:00,345.4695,0.1,13.44,47.84626,-54.09684
2019-02-17 21:20:00+00:00,348.9529,0.1,13.44,47.84626,-54.09684
2019-02-17 21:30:00+00:00,347.9347,0.1,13.37,47.84626,-54.09684
2019-02-17 21:40:00+00:00,347.9897,0.1,13.37,47.84626,-54.09684
2019-02-17 21:50:00+00:00,354.9747,0.1,13.37,47.84626,-54.09684
2019-02-17 22:00:00+00:00,358.8446,0.1,13.29,47.84626,-54.09684
2019-02-17 22:10:00+00:00,356.923,0.1,13.13,47.84626,-54.09684
2019-02-17 22:20:00+00:00,358.3297,0.1,13.13,47.84626,-54.09684
2019-02-17 22:30:00+00:00,365.4713,0.1,13.13,47.84626,-54.09684
2019-02-17 22:40:00+00:00,362.0396,0.09,13.13,47.84626,-54.09684
2019-02-17 22:50:00+00:00,355.0796,0.09,13.05,47.84626,-54.09684
2019-02-17 23:00:00+00:00,362.343,0.1,13.05,47.84626,-54.09684
2019-02-17 23:10:00+00:00,358.2396,0.1,12.89,47.84626,-54.09684
2019-02-17 23:20:00+00:00,348.5346,0.05,12.97,47.84626,-54.09684
2019-02-17 23:30:00+00:00,345.9431,0.04,12.97,47.84626,-54.09684
2019-02-17 23:40:00+00:00,349.4997,0.04,13.05,47.84626,-54.09684
2019-02-17 23:50:00+00:00,342.8596,0.0,13.05,47.84626,-54.09684
